Date String (YYYY-MM-DD hh:mm:ss) UTC,Instrument flags,absolute air pressure of the measurement (hPa),sample flow rate (lpm),inlet stack bypass flow (lpm),air temperature of the measurement (°C),ambient temperature measured by the external sensor (°C),aerosol sample conditioner tube jacket temperature (°C),OPC LED temperature (°C),internal box temperature (°C),relative humidity of the measurement (%),span deviation,mass concentration of particles derived from Lorenz-Mie calculation of OPC scattering (μg/m³),mass concentration of particles derived from Lorenz-Mie calculation of OPC scattering (μg/m³),mass concentration of particles derived from Lorenz-Mie calculation of OPC scattering (μg/m³)
DateTimeUTC,F1_M11,P_M11,Q1_M11,Q2_M11,T1_M11,T2_M11,T3_M11,T4_M11,T5_M11,U1_M11,ZSPAN_M11,X0_M11,X2_M11,X1_M11
2024-06-14 00:00:00,SystemResetWarning,0830.7,5.00,000.00,028.7,028.2,000.0,036.8,030.6,026.9,0000.0,0028.56,0006.64,0004.62
2024-06-14 00:01:00,SystemResetWarning,0830.4,4.99,000.00,028.6,026.5,000.0,036.9,029.8,026.8,0000.0,0029.89,0006.67,0004.63
2024-06-14 00:02:00,SystemResetWarning,0830.3,5.02,000.00,028.3,025.1,000.0,036.9,029.1,027.7,0000.0,0032.15,0006.63,0004.63
2024-06-14 00:03:00,SystemResetWarning,0830.4,5.00,000.00,028.1,025.6,000.0,036.8,029.3,027.8,0000.0,0030.54,0006.66,0004.61
2024-06-14 00:04:00,SystemResetWarning,0830.4,4.99,000.00,028.2,026.1,000.0,036.7,029.5,027.8,0000.0,0030.28,0006.73,0004.58
2024-06-14 00:05:00,SystemResetWarning,0830.4,5.01,000.00,028.2,026.6,000.0,036.7,029.8,028.3,0000.0,0030.15,0006.73,0004.57
2024-06-14 00:06:00,SystemResetWarning,0830.4,5.00,000.00,028.3,027.0,000.0,036.7,030.0,028.4,0000.0,0028.50,0006.81,0004.56
2024-06-14 00:07:00,SystemResetWarning,0830.4,4.99,000.00,028.4,027.5,000.0,036.7,030.2,027.9,0000.0,0028.81,0006.93,0004.55
2024-06-14 00:08:00,SystemResetWarning,0830.4,4.99,000.00,028.5,027.8,000.0,036.7,030.3,026.7,0000.0,0030.03,0006.90,0004.53
2024-06-14 00:09:00,SystemResetWarning,0830.5,5.00,000.00,028.6,028.0,000.0,036.7,030.5,026.8,0000.0,0030.97,0006.93,0004.51
2024-06-14 00:10:00,SystemResetWarning,0830.5,4.98,000.00,028.7,028.3,000.0,036.7,030.6,026.5,0000.0,0032.35,0006.96,0004.48
2024-06-14 00:11:00,SystemResetWarning,0830.6,5.00,000.00,028.8,027.9,000.0,036.8,030.4,026.2,0000.0,0034.05,0006.93,0004.45
2024-06-14 00:12:00,SystemResetWarning,0830.5,5.00,000.00,028.5,025.9,000.0,036.8,029.5,027.1,0000.0,0032.81,0007.01,0004.45
2024-06-14 00:13:00,SystemResetWarning,0830.4,5.01,000.00,028.2,025.3,000.0,036.8,029.1,027.7,0000.0,0032.38,0007.15,0004.47
2024-06-14 00:14:00,SystemResetWarning,0830.5,5.01,000.00,028.2,025.9,000.0,036.8,029.4,028.2,0000.0,0033.40,0007.20,0004.49
2024-06-14 00:15:00,SystemResetWarning,0830.6,4.99,000.00,028.2,026.4,000.0,036.7,029.6,028.2,0000.0,0034.32,0007.15,0004.50
2024-06-14 00:16:00,SystemResetWarning,0830.5,4.99,000.00,028.3,026.8,000.0,036.7,029.9,028.3,0000.0,0034.34,0007.13,0004.50
2024-06-14 00:17:00,SystemResetWarning,0830.6,5.00,000.00,028.4,027.2,000.0,036.7,030.1,028.1,0000.0,0034.47,0007.08,0004.51
2024-06-14 00:18:00,SystemResetWarning,0830.6,5.01,000.00,028.4,027.6,000.0,036.7,030.3,027.8,0000.0,0034.10,0007.02,0004.51
2024-06-14 00:19:00,SystemResetWarning,0830.6,5.01,000.00,028.5,027.9,000.0,036.7,030.4,027.7,0000.0,0035.01,0007.14,0004.52
2024-06-14 00:20:00,SystemResetWarning,0830.6,4.99,000.00,028.7,028.1,000.0,036.7,030.6,027.5,0000.0,0035.65,0007.17,0004.52
2024-06-14 00:21:00,SystemResetWarning,0830.6,4.99,000.00,028.8,028.3,000.0,036.8,030.7,027.4,0000.0,0035.19,0007.13,0004.53
2024-06-14 00:22:00,SystemResetWarning,0830.5,5.00,000.00,028.8,027.3,000.0,036.8,030.2,027.1,0000.0,0033.81,0007.19,0004.54
2024-06-14 00:23:00,SystemResetWarning,0830.5,5.00,000.00,028.4,025.3,000.0,036.8,029.2,027.6,0000.0,0033.19,0007.13,0004.54
2024-06-14 00:24:00,SystemResetWarning,0830.5,5.02,000.00,028.2,025.3,000.0,036.8,029.1,028.1,0000.0,0030.94,0006.98,0004.52
2024-06-14 00:25:00,SystemResetWarning,0830.5,4.98,000.00,028.2,025.9,000.0,036.8,029.4,028.7,0000.0,0030.94,0006.90,0004.51
2024-06-14 00:26:00,SystemResetWarning,0830.6,5.00,000.00,028.2,026.4,000.0,036.7,029.7,028.6,0000.0,0031.80,0006.89,0004.50
2024-06-14 00:27:00,SystemResetWarning,0830.6,5.01,000.00,028.3,026.8,000.0,036.7,029.9,028.6,0000.0,0031.12,0006.82,0004.50
2024-06-14 00:28:00,SystemResetWarning,0830.7,5.01,000.00,028.4,027.2,000.0,036.7,030.1,028.7,0000.0,0030.97,0006.81,0004.50
2024-06-14 00:29:00,SystemResetWarning,0830.7,5.01,000.00,028.5,027.6,000.0,036.7,030.3,028.2,0000.0,0030.63,0006.77,0004.49
2024-06-14 00:30:00,SystemResetWarning,0830.7,4.99,000.00,028.6,027.9,000.0,036.7,030.5,028.5,0000.0,0030.39,0006.70,0004.51
2024-06-14 00:31:00,SystemResetWarning,0830.7,5.00,000.00,028.7,028.1,000.0,036.7,030.6,028.5,0000.0,0029.24,0006.69,0004.52
2024-06-14 00:32:00,SystemResetWarning,0830.8,5.00,000.00,028.8,028.3,000.0,036.8,030.7,028.5,0000.0,0029.12,0006.70,0004.52
2024-06-14 00:33:00,SystemResetWarning,0830.8,4.99,000.00,028.8,027.8,000.0,036.8,030.4,027.9,0000.0,0029.56,0006.66,0004.53
2024-06-14 00:34:00,SystemResetWarning,0830.7,5.00,000.00,028.5,025.8,000.0,036.9,029.5,028.4,0000.0,0029.08,0006.60,0004.52
2024-06-14 00:35:00,SystemResetWarning,0830.6,5.01,000.00,028.2,025.3,000.0,036.9,029.2,029.0,0000.0,0030.89,0006.66,0004.51
2024-06-14 00:36:00,SystemResetWarning,0830.7,5.01,000.00,028.2,025.9,000.0,036.8,029.4,028.8,0000.0,0032.59,0006.72,0004.51
2024-06-14 00:37:00,SystemResetWarning,0830.7,4.99,000.00,028.2,026.3,000.0,036.7,029.7,029.0,0000.0,0030.40,0006.69,0004.52
2024-06-14 00:38:00,SystemResetWarning,0830.8,5.00,000.00,028.3,026.8,000.0,036.7,029.9,028.9,0000.0,0030.40,0006.67,0004.52
2024-06-14 00:39:00,SystemResetWarning,0830.8,5.01,000.00,028.4,027.2,000.0,036.7,030.1,029.0,0000.0,0030.23,0006.66,0004.52
2024-06-14 00:40:00,SystemResetWarning,0830.8,5.00,000.00,028.5,027.6,000.0,036.7,030.3,029.1,0000.0,0029.90,0006.63,0004.54
2024-06-14 00:41:00,SystemResetWarning,0830.9,5.01,000.00,028.6,027.9,000.0,036.7,030.5,028.9,0000.0,0029.87,0006.60,0004.54
2024-06-14 00:42:00,SystemResetWarning,0830.9,5.00,000.00,028.7,028.1,000.0,036.7,030.6,029.0,0000.0,0030.15,0006.56,0004.53
2024-06-14 00:43:00,SystemResetWarning,0830.9,5.00,000.00,028.8,028.4,000.0,036.8,030.8,029.0,0000.0,0030.23,0006.55,0004.54
2024-06-14 00:44:00,SystemResetWarning,0830.9,4.99,000.00,028.9,028.1,000.0,036.8,030.6,028.4,0000.0,0028.93,0006.60,0004.55
2024-06-14 00:45:00,SystemResetWarning,0830.8,4.99,000.00,028.6,026.0,000.0,036.9,029.5,029.1,0000.0,0029.88,0006.67,0004.56
2024-06-14 00:46:00,SystemResetWarning,0830.8,5.01,000.00,028.2,025.1,000.0,036.9,029.0,029.9,0000.0,0028.24,0006.70,0004.57
2024-06-14 00:47:00,SystemResetWarning,0830.8,5.00,000.00,028.2,025.7,000.0,036.8,029.3,030.6,0000.0,0026.20,0006.70,0004.58
2024-06-14 00:48:00,SystemResetWarning,0830.9,4.99,000.00,028.2,026.1,000.0,036.8,029.6,030.9,0000.0,0026.73,0006.72,0004.58
2024-06-14 00:49:00,SystemResetWarning,0830.9,5.01,000.00,028.3,026.6,000.0,036.7,029.8,031.0,0000.0,0027.75,0006.76,0004.59
2024-06-14 00:50:00,SystemResetWarning,0830.9,5.00,000.00,028.3,027.1,000.0,036.7,030.0,030.6,0000.0,0028.45,0006.84,0004.59
2024-06-14 00:51:00,SystemResetWarning,0831.0,5.00,000.00,028.4,027.4,000.0,036.7,030.2,030.5,0000.0,0030.06,0006.99,0004.59
2024-06-14 00:52:00,SystemResetWarning,0831.0,4.99,000.00,028.5,027.8,000.0,036.7,030.4,031.0,0000.0,0029.15,0007.05,0004.59
2024-06-14 00:53:00,SystemResetWarning,0831.0,4.99,000.00,028.6,028.0,000.0,036.7,030.5,030.4,0000.0,0029.09,0007.09,0004.60
2024-06-14 00:54:00,SystemResetWarning,0831.1,5.01,000.00,028.7,028.3,000.0,036.8,030.7,030.1,0000.0,0029.10,0007.13,0004.61
2024-06-14 00:55:00,SystemResetWarning,0831.1,5.01,000.00,028.8,028.5,000.0,036.8,030.8,029.9,0000.0,0029.62,0007.16,0004.62
2024-06-14 00:56:00,SystemResetWarning,0831.1,4.99,000.00,028.9,028.5,000.0,036.9,030.8,029.5,0000.0,0029.96,0007.15,0004.62
2024-06-14 00:57:00,SystemResetWarning,0831.1,4.98,000.00,028.8,026.7,000.0,036.9,029.9,030.3,0000.0,0031.94,0007.23,0004.62
2024-06-14 00:58:00,SystemResetWarning,0831.0,5.01,000.00,028.4,025.3,000.0,037.0,029.2,031.1,0000.0,0032.86,0007.30,0004.63
2024-06-14 00:59:00,SystemResetWarning,0831.1,5.01,000.00,028.3,025.6,000.0,036.9,029.3,031.0,0000.0,0034.19,0007.32,0004.62
